Overview Statistics Trail Chart Weather Telemetry Raw packets
 

This is the latest recevied weather packets stored in our database for station/object YO8PIC-13. If no packets are shown the sender has not sent any weather packets the latest 10 day(s).

<< 22 23 24 25 26 27 28 >>
Time Temp. Humidity Pressure Rain* Wind** Luminosity Snow
1788222140 22.22° C 36% 1017.9 hPa - - - -
1788221539 22.22° C 36% 1018 hPa - - - -
1788220940 22.22° C 36% 1018.1 hPa - - - -
1788220340 22.22° C 36% 1018.2 hPa - - - -
1788219739 22.78° C 36% 1018 hPa - - - -
1788219139 22.78° C 37% 1018.2 hPa - - - -
1788218539 22.78° C 36% 1018.2 hPa - - - -
1788217939 22.78° C 36% 1018.3 hPa - - - -
1788217340 23.33° C 34% 1018.3 hPa - - - -
1788216746 23.89° C 33% 1018.3 hPa - - - -
1788216139 24.44° C 32% 1018.4 hPa - - - -
1788215540 24.44° C 32% 1018.4 hPa - - - -
1788214939 24.44° C 32% 1018.4 hPa - - - -
1788214339 24.44° C 33% 1018.5 hPa - - - -
1788213739 23.89° C 33% 1018.5 hPa - - - -
1788213140 23.89° C 34% 1018.6 hPa - - - -
1788212539 23.89° C 35% 1018.7 hPa - - - -
1788211339 23.89° C 35% 1018.6 hPa - - - -
1788210741 23.89° C 35% 1018.7 hPa - - - -
1788210139 23.89° C 36% 1018.7 hPa - - - -
1788209539 24.44° C 35% 1018.6 hPa - - - -
1788208339 25° C 33% 1018.5 hPa - - - -
1788207741 25° C 33% 1018.4 hPa - - - -
1788207139 25° C 32% 1018.5 hPa - - - -
1788206540 25.56° C 32% 1018.3 hPa - - - -

* Rain since midnight (hover to see other rain measurements)
** Current wind speed in m/s (hover to see current wind gust speed)